Flight Track Log - Related Links

Times and Time Zones

All times are in EST time to prevent confusion due to time zone crossing. See the N873PC flight status page for this flight to view local times or setup timezone preferences in your user account.

Time Position Orientation Groundspeed Altitude Reporting Facility
EST Latitude Longitude Course Direction KTS MPH feet Rate Location/Type
Fri 12:27:38 PM 32.5653 -111.3631 344° North 187 215 5,400  Level Albuquerque Center
Fri 12:27:44 PM 32.5717 -111.3653 344° North 185 213 5,600 1,324 Climbing Albuquerque Center
Fri 12:28:46 PM 32.5997 -111.4153 304° West 182 209 6,900 1,161 Climbing Albuquerque Center
Fri 12:29:48 PM 32.6283 -111.4653 304° West 182 209 8,000 919 Climbing Albuquerque Center
Fri 12:30:50 PM 32.6728 -111.4811 343° North 191 220 8,800 435 Climbing Albuquerque Center
Fri 12:31:52 PM 32.7294 -111.4661 13° North 203 234 8,900 48 Climbing Albuquerque Center
Fri 12:32:55 PM 32.7858 -111.4539 10° North 211 243 8,900  Level Albuquerque Center
Fri 12:33:57 PM 32.8572 -111.4353 12° North 218 251 8,900  Level Albuquerque Center
Fri 12:34:59 PM 32.9172 -111.4203 12° North 220 253 8,900  Level Albuquerque Center
Fri 12:36:01 PM 32.9775 -111.4050 12° North 221 254 8,900 -97 Level Albuquerque Center
Fri 12:37:03 PM 33.0328 -111.4275 341° North 222 255 8,700 -339 Descending Albuquerque Center
Fri 12:38:05 PM 33.0639 -111.4925 300° West 224 258 8,200 -484 Descending Albuquerque Center
Fri 12:39:07 PM 33.0933 -111.5575 298° West 223 257 7,700 -484 Descending Albuquerque Center
Fri 12:40:09 PM 33.1281 -111.6339 299° West 218 251 7,200 -581 Descending Albuquerque Center
Fri 12:41:11 PM 33.1578 -111.6994 298° West 223 257 6,500 -581 Descending Albuquerque Center
Fri 12:42:13 PM 33.1881 -111.7658 299° West 228 262 6,000 -290 Descending Albuquerque Center
Fri 12:43:15 PM 33.2169 -111.8300 298° West 222 255 5,900 -387 Descending Albuquerque Center
Fri 12:44:17 PM 33.2481 -111.8961 299° West 225 259 5,200 -435 Descending Albuquerque Center
Fri 12:45:19 PM 33.2789 -111.9653 298° West 233 268 5,000 -95 Descending Albuquerque Center
Fri 12:46:23 PM 33.3233 -112.0328 308° West 220 253 5,000  Level Albuquerque Center
Fri 12:47:24 PM 33.3797 -112.0394 354° North 204 235 5,000  Level Albuquerque Center
Fri 12:48:26 PM 33.4328 -112.0203 17° North 199 229 5,000  Level Albuquerque Center
Fri 12:49:28 PM 33.4861 -112.0011 17° North 199 229 5,000 -242 Level Albuquerque Center
Fri 12:50:30 PM 33.5336 -111.9733 26° Northeast 192 221 4,500 -726 Descending Albuquerque Center
Fri 12:51:32 PM 33.5728 -111.9356 39° Northeast 182 209 3,500 -968 Descending Albuquerque Center
Fri 12:52:34 PM 33.6153 -111.8875 43° Northeast 178 205 2,500 -726 Descending Albuquerque Center
Fri 12:53:36 PM 33.6403 -111.8842 North 145 167 2,000 -484 Descending Albuquerque Center
Fri 12:54:38 PM 33.6208 -111.9097 228° Southwest 116 133 1,500 -484 Descending Albuquerque Center

Login

Don't have an account? Register now (free) for customized features, flight alerts, and more!